Ottawa, OH (45875)

9:33 AM EST on February 09, 2016 (GMT -0500)
Ottawa | | Change Station
CLOSE
Current Station
Personal Weather Station
Location: Ottawa, OH
Elevation: 728 ft
Nearby Weather Stations

Elev 728 ft 41.02 °N, 84.05 °W | Updated 26 seconds ago

Overcast
Overcast
27.3 °F
Feels Like 21 °F
N
5.1
Wind Variable Wind from South
Gusts 7.4 mph

Today
High -- | Low -- °F
--% Chance of Precip.
Yesterday
High -- | Low -- °F
Precip. -- in
Pressure 29.63 in
Visibility 2.0 miles
Clouds Overcast 1300 ft
Windchill 21 °F
Dew Point 22 °F
Humidity 79%
Rainfall 0.00 in
Snow Depth Not available.
7:38 AM 6:02 PM
New Moon, 1% visible
SPECI KFDY 091430Z AUTO 25016KT 2SM -SN OVC013 M02/M06 A2963 RMK AO2 SNB13 P0000 T10221056 TSNO
Pressure 29.63 in
Visibility 2.0 miles
Clouds Overcast 1300 ft
Windchill 21 °F
Dew Point 22 °F
Humidity 79%
Rainfall 0.00 in
Snow Depth Not available.
7:38 AM 6:02 PM
New Moon, 1% visible
SPECI KFDY 091430Z AUTO 25016KT 2SM -SN OVC013 M02/M06 A2963 RMK AO2 SNB13 P0000 T10221056 TSNO

10-Day Weather Forecast

Almanac

Astronomy

Feb. 09, 2016 Rise Set
Actual Time
Civil Twilight
Nautical Twilight
Astronomical Twilight
Moon
Length of Visible Light
Length of Day
Tomorrow will be .
, % of the Moon is Illuminated

Today's Extremes

State Highs State Lows

Community

WunderPhotos

Upload Photos

1,891,606 photos uploaded!

WunderBlog® & News

Nearby

Air Quality

  Air Quality AQ Index Pollutant
Not available.

Snow Depth

Station Depth Elevation

Earthquake Activity

City Distance Mag. Time & Date
Minimum magnitude displayed is 2.5.

Coastal Water Temperatures

Place Temperature

Stations

Nearby Weather Stations

Station Location Temp. Windchill Dew Point Humidity Wind Precip. Elev Updated Type
                   

Watches & Warnings

There are currently no watches in effect.